Location: Ha?eg
(45.6167°N, 22.9500°E)
Time: 18:49:34
(UTC+00:00)

Daily predictions for brighter satellites

Satellite Brightness Start Highest point End
(mag) Time Altitude Azimuth Time Altitude Azimuth Time Altitude Azimuth
ADEOS 3.6 16:00:26 10° SSE 16:05:38 82° ENE 16:10:53 10° NNW
AQUARIUS 4.3 16:01:33 10° SSE 16:06:01 82° WSW 16:10:31 10° NNW
CZ-2C R/B 4.3 16:02:06 10° N 16:07:07 36° WNW 16:12:11 10° SW
Cosmos 1975 Rocket 4.1 16:03:31 10° SSW 16:07:51 51° WNW 16:12:12 10° N
Cosmos 2263 Rocket 2.2 16:03:56 10° NNW 16:09:33 89° ENE 16:15:06 10° SSE
Cosmos 1536 Rocket 3.8 16:07:38 10° SSE 16:11:46 48° E 16:15:57 10° NNE
USA 290 2.2 16:11:27 10° SSW 16:14:40 84° WNW 16:17:54 10° NNE
Cosmos 2251 Rocket 3.6 16:13:44 10° SSW 16:19:05 88° WNW 16:24:31 10° NNE
USA 215 3.6 16:13:36 10° SE 16:20:08 70° SW 16:26:42 10° NW
ATLAS 2AS CENTAUR R/B 3.0 16:16:09 10° NNW 16:23:01 49° NE 16:29:28 10° ESE
Cosmos 1763 Rocket 4.1 16:19:07 10° N 16:23:51 34° ENE 16:28:31 10° SE
Cosmos 1606 Rocket 4.3 16:21:29 10° NNE 16:25:17 30° ENE 16:29:05 10° SE
Cosmos 1328 3.7 16:27:41 10° S 16:31:38 67° E 16:35:35 10° NNE
BREEZE M DEB (TANK) 2.9 16:25:36 10° WNW 16:31:40 79° SSW 16:34:20 10° ESE
CZ-4 R/B 2.7 16:29:53 10° ESE 16:32:52 20° ENE 16:35:51 10° NNE
Cosmos 2228 2.9 16:30:35 10° N 16:34:48 65° E 16:38:59 10° SSE
CZ-4B DEB 4.2 16:30:41 10° SSE 16:36:02 64° ENE 16:41:27 10° N
Lacrosse 5 rocket 2.7 16:33:33 10° NNW 16:36:10 19° NNE 16:37:43 15° NE
Cosmos 1655 Rocket 4.1 16:30:19 10° N 16:36:37 86° W 16:42:51 10° S
COSMO-SKYMED 1 2.5 16:33:25 10° NNE 16:37:47 74° ESE 16:42:07 10° S
Cosmos 724 4.4 16:32:35 10° SSW 16:38:30 89° WNW 16:44:38 10° NE
Cosmos 1844 Rocket 3.2 16:35:37 10° NNW 16:40:47 37° NE 16:45:56 10° ESE
CZ-4B R/B 3.6 16:36:26 10° SE 16:41:19 38° ENE 16:46:19 10° N
Cosmos 540 Rocket 4.1 16:39:28 10° N 16:44:08 33° ENE 16:48:46 10° SE
Cosmos 2227 4.3 16:41:02 10° NNW 16:46:50 86° WSW 16:52:36 10° SSE
RESURS DK-1 3.6 16:43:39 10° N 16:46:58 23° NE 16:47:54 21° ENE
Gblst 52 Del rocket 4.1 16:42:23 10° SW 16:48:03 77° SSE 16:52:03 19° ENE
Cosmos 1844 4.2 16:44:41 10° NNW 16:50:07 39° NE 16:55:19 11° ESE
CZ-4C R/B 3.1 16:47:29 10° NNE 16:51:24 87° ESE 16:55:04 10° SSW
Cosmos 676 Rocket 4.2 16:47:34 10° S 16:52:40 50° ESE 16:57:45 10° NNE
Cosmos 1184 Rocket 4.1 16:50:42 10° NNW 16:52:51 30° W 16:54:59 10° SSW
Cosmos 2278 4.1 16:47:30 10° SW 16:53:08 66° WNW 16:58:49 10° NNE
COSMOS 2455 4.1 16:48:58 10° WSW 16:54:32 38° NW 17:00:09 10° NNE
Cosmos 407 Rocket 4.0 16:50:33 10° SW 16:55:39 60° WNW 17:00:44 10° NNE
Lacrosse 5 2.1 16:51:10 10° SSW 16:56:06 52° SE 16:59:06 23° ENE
Cosmos 1726 Rocket 3.6 16:54:11 10° N 16:58:23 49° ENE 17:02:34 10° SSE
Cosmos 2360 Rocket 2.7 16:54:22 10° S 16:59:31 37° ESE 17:02:57 19° NE
Cosmos 2333 Rocket 3.1 16:56:07 10° SSE 17:00:40 25° ESE 17:01:49 24° E
Okean O Rocket 2.1 16:57:13 10° SE 17:01:13 36° ENE 17:05:15 10° N
Cosmos 2219 Rocket 3.7 16:57:43 10° SE 16:59:55 16° ESE 16:59:55 16° ESE
Cosmos 2278 Rocket 4.2 17:03:54 10° NNE 17:05:37 11° NNE 17:05:37 11° NNE
Cosmos 2322 Rocket 2.1 17:04:35 10° SSW 17:10:07 67° ESE 17:14:56 14° NNE
Cosmos 1892 2.9 17:07:03 10° SSW 17:10:45 69° W 17:14:30 10° N
Cosmos 1553 Rocket 4.0 17:05:23 10° SSE 17:11:14 53° E 17:17:10 10° NNE
Cosmos 1190 Rocket 4.3 17:08:09 10° SSW 17:13:26 68° WNW 17:18:44 10° NNE
BREEZE-M DEB (TANK) 4.5 17:12:36 10° WNW 17:16:18 21° SW 17:18:29 10° S
SL-4 R/B 2.8 17:14:14 10° WNW 17:17:26 31° N 17:18:05 28° NNE
Cosmos 1408 4.3 17:15:10 10° SW 17:18:13 30° WNW 17:21:18 10° NNW
SL-08 R/B 4.4 17:12:07 10° N 17:18:20 63° ENE 17:24:33 10° SSE
SL-16 R/B 2.4 17:17:38 10° SSW 17:23:17 71° WNW 17:28:58 10° NNE
In-Cosmos 22 Rocket 4.2 17:20:31 10° S 17:26:19 89° E 17:32:12 10° N
Cosmos 1633 2.2 17:23:17 10° S 17:26:38 85° E 17:26:54 73° NNE
Cosmos 1825 2.3 17:24:14 10° SSW 17:27:55 71° W 17:31:09 13° N
ATLAS CENTAUR R/B 3.7 17:26:25 10° W 17:30:06 22° NW 17:33:25 11° NNE
Cosmos 2058 Rocket 3.0 17:26:02 10° N 17:30:25 62° E 17:32:19 32° SSE
CSL-04 Debris 4.4 17:31:05 41° E 17:31:46 43° ENE 17:36:51 10° N
BlueWalker 3 3.4 17:30:56 10° WNW 17:34:15 26° N 17:34:32 26° N
Meteor 1-27 4.1 17:30:50 10° N 17:36:41 81° E 17:42:23 10° SSE
ISS -2.4 17:33:46 10° WNW 17:36:53 35° SW 17:37:28 32° SSW
BREEZE-M DEB (TANK) 3.2 17:34:10 10° W 17:37:46 90° ESE 17:40:31 38° E
YAOGAN 1 3.2 17:33:34 10° S 17:37:48 56° W 17:42:04 10° NNW
DMSP B5D1-3 4.4 17:33:06 10° NNE 17:38:14 90° WNW 17:43:21 10° SSW
CSL-04 Rocket 4.0 17:40:27 44° NE 17:40:27 44° NE 17:45:05 10° N
Cosmos 1461 2.8 17:36:55 10° SW 17:41:10 90° NNW 17:41:46 66° NE
Spot 1 3.7 17:43:28 81° ENE 17:43:37 84° ESE 17:47:40 10° SSW
Cosmos 468 Rocket 4.4 17:39:57 10° NNW 17:45:05 62° WSW 17:50:08 10° S
S3M 4.0 17:39:01 10° S 17:45:15 59° E 17:51:31 10° NNE
Cosmos 1869 3.4 17:45:55 10° NNW 17:49:47 70° W 17:50:12 63° SW
Cosmos 1850 Rocket 3.9 17:56:38 10° SSW 18:01:16 69° SSE 18:01:16 69° SSE
CZ-4 R/B 2.7 18:03:35 10° S 18:07:29 41° W 18:11:23 10° NNW
Cosmos 1741 Rocket 4.1 18:03:04 10° SSW 18:07:42 68° S 18:07:42 68° S
ATLAS 2AS CENTAUR R/B 3.7 18:07:24 10° NW 18:13:51 43° WSW 18:19:50 11° S
Lacrosse 5 rocket 3.4 18:11:56 10° NW 18:13:08 20° NW 18:13:08 20° NW
Cosmos 841 Rocket 3.6 18:11:16 10° NNW 18:16:32 71° WSW 18:16:40 70° WSW
Cosmos 1844 Rocket 4.0 18:19:35 10° NW 18:24:39 37° WSW 18:28:56 14° SSW
RESURS DK-1 4.1 18:21:11 10° NW 18:23:46 31° WNW 18:23:46 31° WNW
Cosmos 1745 Rocket 4.5 18:26:41 10° NNW 18:32:47 57° W 18:38:48 10° SSW
Atlas Centaur 2 4.4 18:26:33 10° SW 18:32:23 24° S 18:32:23 24° S
Okean O Rocket 3.8 18:34:04 10° SSW 18:37:37 24° W 18:41:13 10° NW
Lacrosse 5 3.1 18:34:23 10° W 18:38:20 38° NW 18:38:20 38° NW
Cosmos 2360 Rocket 3.4 18:38:16 10° WSW 18:43:29 37° NW 18:44:48 33° NNW
Cosmos 2219 Rocket 3.5 18:38:58 10° SSW 18:41:44 30° SW 18:41:44 30° SW
Cosmos 2333 Rocket 2.9 18:39:03 10° SW 18:43:55 50° W 18:43:55 50° W
Cosmos 2278 Rocket 4.2 18:45:50 10° NNW 18:47:29 19° N 18:47:29 19° N
Cosmos 2322 Rocket 4.2 18:50:14 10° W 18:54:41 24° NW 18:56:48 19° NNW
BREEZE-M DEB (TANK) 4.4 18:31:57 10° WNW 19:00:07 82° SSW 19:01:02 75° SSE
